LHX1VV EDDM-LRTR

Flight info

Callsign LHX1VV
Flight time N/A
Altitude 39000
Route KIRDI3S/26L KIRDI DCT BUBSE DCT GOTAR DCT BABIT/N0378F190 Y574 ROMUX
Aircraft A20N/M-SDE2E3FGHIRWXY/LB1

Departure

Time 2026-05-05 17:01
Airport Munich Airport (EDDM)

Arrival

Time N/A
Airport Timișoara Traian Vuia International Airport (LRTR)
Time Latitude Longitude Altitude Speed Heading
2026-05-05 16:53 48.35540 11.80148 1470 ft 0 kts 174°
2026-05-05 16:54 48.35532 11.80149 1471 ft 3 kts 174°
2026-05-05 16:55 48.35489 11.80156 1471 ft 8 kts 174°
2026-05-05 16:55 48.35418 11.80170 1472 ft 11 kts 165°
2026-05-05 16:55 48.35329 11.80197 1472 ft 14 kts 174°
2026-05-05 16:55 48.35229 11.80214 1473 ft 14 kts 173°
2026-05-05 16:56 48.35138 11.80226 1473 ft 9 kts 193°
2026-05-05 16:56 48.35105 11.80146 1473 ft 10 kts 261°
2026-05-05 16:56 48.35096 11.80039 1473 ft 10 kts 263°
2026-05-05 16:56 48.35087 11.79924 1473 ft 11 kts 263°
2026-05-05 16:57 48.35078 11.79804 1474 ft 11 kts 263°
2026-05-05 16:57 48.35064 11.79695 1474 ft 9 kts 235°
2026-05-05 16:57 48.35002 11.79667 1474 ft 9 kts 175°
2026-05-05 16:57 48.34931 11.79680 1474 ft 10 kts 174°
2026-05-05 16:58 48.34855 11.79691 1475 ft 11 kts 173°
2026-05-05 16:58 48.34807 11.79764 1475 ft 11 kts 89°
2026-05-05 16:58 48.34815 11.79890 1475 ft 12 kts 84°
2026-05-05 16:58 48.34826 11.80028 1474 ft 13 kts 83°
2026-05-05 16:59 48.34808 11.80166 1474 ft 14 kts 128°
2026-05-05 16:59 48.34728 11.80241 1474 ft 13 kts 175°
2026-05-05 16:59 48.34632 11.80258 1475 ft 13 kts 171°
2026-05-05 16:59 48.34536 11.80275 1475 ft 13 kts 174°
2026-05-05 17:00 48.34476 11.80275 1475 ft 5 kts 212°
2026-05-05 17:00 48.34460 11.80218 1475 ft 6 kts 265°
2026-05-05 17:00 48.34450 11.80086 1476 ft 36 kts 263°
2026-05-05 17:00 48.34390 11.79313 1477 ft 110 kts 263°
2026-05-05 17:01 48.34278 11.77850 1484 ft 169 kts 264°
2026-05-05 17:01 48.34153 11.76048 2043 ft 176 kts 262°
2026-05-05 17:01 48.33995 11.74252 2827 ft 176 kts 264°
2026-05-05 17:01 48.33691 11.72521 3619 ft 178 kts 244°
2026-05-05 17:02 48.32766 11.71183 4084 ft 200 kts 211°
2026-05-05 17:02 48.31344 11.70744 4555 ft 224 kts 181°
2026-05-05 17:02 48.29742 11.70969 5161 ft 238 kts 178°
2026-05-05 17:02 48.28131 11.71554 5962 ft 246 kts 157°
2026-05-05 17:03 48.26693 11.72966 6803 ft 251 kts 145°
2026-05-05 17:03 48.25268 11.74525 7465 ft 261 kts 149°
2026-05-05 17:03 48.23702 11.76052 7970 ft 278 kts 150°
2026-05-05 17:03 48.22051 11.77648 8657 ft 288 kts 150°
2026-05-05 17:04 48.20389 11.79290 9560 ft 289 kts 148°
2026-05-05 17:04 48.18945 11.81346 10432 ft 295 kts 125°
2026-05-05 17:04 48.18249 11.84229 11227 ft 304 kts 98°